Flag for Norway Weather past 2 weeks in Sandefjord, Norway

Now
50 °F

Passing clouds.


Feels Like: 46 °F
Forecast: 44 / 51 °F
Wind: 12 mph from Southwest

Location: Torp

Current Time: May 29, 2015 at 9:26:34 AM

Latest Report: May 29, 2015 at 8:50 AM


Visibility: N/A

Pressure: 29.53 "Hg

Humidity: 62%

Dew point: 37 °F

Location of SandefjordLocation

Historic Weather in Sandefjord — Graph

°F

Sandefjord temperature yesterday

Maximum temperature yesterday: 52 °F (at 3:20 PM)
Minimum temperature yesterday: 43 °F (at 3:20 AM)
Average temperature yesterday: 48 °F

Past Weeks' High & Low Weather Summary

 TemperatureHumidityPressure
High63 °F (May 23, 1:50 PM)100% (May 16, 3:50 PM)30.04 "Hg (May 16, 3:50 PM)
Low36 °F (May 18, 3:20 AM)29% (May 23, 5:50 PM)29.39 "Hg (May 19, 8:20 AM)
Average49 °F71%29.79 "Hg
* Reported May 14 7:20 AM — May 29 7:50 AM, Sandefjord, Weather by CustomWeather, © 2015

Note: Actual official high and low records may vary slightly from our data, if they occured in-between our weather recording intervals... More about our weather records

Advertising

Sandefjord weather history for previous 24 hours

 ConditionsComfort  
Time TempWeatherWind HumidityBarometerVisibility
7:50 AM
Fri, May 29
46 °FPassing clouds.15 mph71%29.53 "HgN/A
7:20 AM46 °FScattered showers. Passing clouds.14 mph71%29.53 "HgN/A
6:50 AM45 °FSunny.14 mph71%29.53 "Hg10 mi
6:20 AM45 °FSunny.16 mph71%29.53 "Hg10 mi
5:50 AM45 °FSunny.17 mph76%29.53 "Hg10 mi
5:20 AM43 °FQuite cool.17 mph76%29.53 "HgN/A
4:50 AM43 °FQuite cool.15 mph76%29.50 "HgN/A
4:20 AM43 °FQuite cool.15 mph76%29.50 "HgN/A
3:50 AM43 °FPassing clouds.14 mph76%29.50 "HgN/A
3:20 AM43 °FPassing clouds.14 mph76%29.50 "HgN/A
2:50 AM45 °FQuite cool.13 mph76%29.50 "HgN/A
2:20 AM45 °FPassing clouds.13 mph76%29.50 "HgN/A
1:50 AM46 °FPassing clouds.13 mph71%29.50 "HgN/A
1:20 AM46 °FPassing clouds.14 mph71%29.47 "HgN/A
12:50 AM46 °FPassing clouds.12 mph76%29.47 "HgN/A
11:50 PM
Thu, May 28
48 °FPassing clouds.13 mph71%29.47 "HgN/A
11:20 PM48 °FPassing clouds.17 mph66%29.47 "HgN/A
10:50 PM48 °FBroken clouds.15 mph66%29.47 "HgN/A
10:20 PM48 °FBroken clouds.14 mph66%29.45 "HgN/A
9:50 PM50 °FPartly sunny.14 mph71%29.45 "HgN/A
9:20 PM50 °FPartly sunny.15 mph76%29.45 "HgN/A
8:50 PM50 °FPartly sunny.17 mph82%29.45 "HgN/A
8:20 PM50 °FPartly sunny.18 mph82%29.45 "HgN/A
7:50 PM52 °FScattered showers. Partly sunny.17 mph77%29.45 "HgN/A
7:20 PM50 °FPartly sunny.16 mph82%29.45 "HgN/A
6:50 PM50 °FPartly sunny.17 mph82%29.47 "HgN/A
6:20 PM50 °FPartly sunny.20 mph76%29.47 "HgN/A
5:50 PM50 °FPartly sunny.16 mph82%29.47 "HgN/A
5:20 PM50 °FPartly sunny.16 mph82%29.47 "HgN/A
4:50 PM50 °FPartly sunny.16 mph88%29.50 "HgN/A
4:20 PM50 °FPartly sunny.14 mph88%29.50 "HgN/A
3:50 PM50 °FPartly sunny.16 mph88%29.50 "HgN/A
3:20 PM52 °FPartly sunny.17 mph82%29.50 "HgN/A
2:50 PM50 °FPartly sunny.17 mph88%29.50 "HgN/A
2:20 PM48 °FLight rain. Broken clouds.10 mph100%29.53 "HgN/A
1:50 PM48 °FRain. Partly sunny.7 mph94%29.53 "Hg3 mi
1:20 PM46 °FRain. Broken clouds.9 mph100%29.56 "Hg3 mi
12:50 PM46 °FRain. Partly sunny.8 mph93%29.56 "Hg4 mi
12:20 PM46 °FLight rain. Cloudy.7 mph93%29.59 "Hg4 mi
11:50 AM46 °FRain. Broken clouds.7 mph93%29.59 "Hg4 mi
11:20 AM46 °FRain. Broken clouds.7 mph93%29.62 "Hg5 mi
10:50 AM46 °FRain. Broken clouds.7 mph93%29.65 "Hg5 mi
10:20 AM46 °FLight rain. Broken clouds.9 mph93%29.65 "HgN/A
9:50 AM46 °FDrizzle. Broken clouds.9 mph93%29.68 "Hg5 mi
9:20 AM46 °FLight rain. Broken clouds.10 mph93%29.68 "HgN/A
Weather by CustomWeather, © 2015

See weather overviewHow to use our weather pages